sat.trackr.live / text

‹ back to catalog

STARLINK-5237

NORAD 54196 · 2022-141AR

PAYLOAD ACTIVE UNKNOWN

§ Identity

Operator
Country
US
Launch date
2022-10-28
Launch site
AFWTR
Launch vehicle
Mass (kg)
RCS (m²)

Purposes: comms

External: N2YO · Heavens-Above · Gunter

§ Orbital elements

Epoch: 2026-05-25T00:36:46.027008Z

Period
95.44 min
Inclination
53.2126°
Eccentricity
0.0001500
Mean motion
15.08845783 rev/d
Perigee alt
538.7 km
Apogee alt
540.8 km
Semi-major
6,917.9 km
B*
-6.9421e-6
RAAN
11.3207°
Arg perigee
70.0491°
Mean anomaly
290.0662°
Rev number
19,752

§ Raw data

STARLINK-52371 54196U 22141AR  26145.02553272 -.00000399  00000+0 -69421-5 0  99982 54196  53.2126  11.3207 0001500  70.0491 290.0662 15.08845783197525

JSON: /api/v1/satellites/54196 · /tle

For live sub-satellite position, see the globe view (requires WebGL).

§ Visibility from observer

Set your observer location to see the next 7 days of passes ≥ 10°. The values pass through the URL so the page stays shareable.

No JS? Fill the form by hand. The geolocation button needs JavaScript.